Regional Weather Roundup
Issued by NWS Albany, NY

Home | Current Version | Previous Version | Text Only | Print | Product List | Glossary On
Versions: 1 2 3 4 5 6 7 8 9 10 11 12 13 14 15 16 17 18 19 20 21 22 23 24 25 26 27
000
ASUS41 KALY 231210
RWRALY

NEW YORK STATE HOURLY WEATHER ROUNDUP
NATIONAL WEATHER SERVICE ALBANY NY
800 AM EDT WED APR 23 2014

NOTE: "FAIR" INDICATES FEW OR NO CLOUDS BELOW 12,000 FEET WITH NO
SIGNIFICANT WEATHER AND/OR NO OBSTRUCTIONS TO VISIBILITY.

NYZ032-033-038>043-046>054-057>066-NYZ062>081-231300-
EAST


CITY           SKY/WX    TMP DP  RH WIND       PRES   REMARKS
ALBANY         LGT RAIN  43  38  82 NW14      29.58R
GLENS FALLS    LGT RAIN  49  38  65 NW3       29.55S
POUGHKEEPSIE   CLOUDY    49  39  68 NW12      29.56R
NEWBURGH       PTSUNNY   46  37  71 W14       29.58R
MONTGOMERY     CLOUDY    47  36  65 NW15      29.58R
WHITE PLAINS   PTSUNNY   48  36  63 NW18G29   29.55R
ISLIP          CLOUDY    51  41  68 NW12G24   29.52R
NEW YORK CITY  PTSUNNY   50  33  52 NW18G31   29.57R
CENTRAL PARK   CLOUDY    50  32  50 VRB7G22   29.60R
$$

NYZ005>009-017-018-044>046-055-056-231300-
CENTRAL


CITY           SKY/WX    TMP DP  RH WIND       PRES   REMARKS
FULTON         LGT RAIN  40  36  86 N13G21    29.73R WCI  32
SYRACUSE       CLOUDY    40  40 100 NW12      29.70R WCI  33
ROME           LGT RAIN  39  38  96 W10       29.65R WCI  32
ELMIRA         LGT RAIN  40  34  79 W10       29.73R WCI  33
BINGHAMTON     CLOUDY    37  35  92 W12G20    29.64R WCI  29
MONTICELLO     CLOUDY    39  37  93 NW15G23   29.60R WCI  31
$$

NYZ026>034-041>043-231300-
NORTH


CITY           SKY/WX    TMP DP  RH WIND       PRES   REMARKS
WATERTOWN      CLOUDY    41  32  70 N17       29.72R
FORT DRUM      NOT AVBL
MASSENA        CLOUDY    40  35  83 NW13      29.68R WCI  32
SARANAC LAKE   CLOUDY    37  35  92 VRB7      29.57R WCI  32
PLATTSBURGH    CLOUDY    45  38  76 NW10G20   29.57S
$$

NYZ001>004-010>016-019>021-231300-
WEST


CITY           SKY/WX    TMP DP  RH WIND       PRES   REMARKS
NIAGARA FALLS  LGT RAIN  36  33  89 NW14      29.86R FOG     WCI  27
BUFFALO        FLURRIES  37  34  89 NW9G21    29.84R WCI  30
DUNKIRK        MIX PCPN  36  32  85 W7        29.89R WCI  30
JAMESTOWN      CLOUDY    34  28  80 NW14G20   29.84R WCI  24
WELLSVILLE     CLOUDY    34  30  85 NW14G23   29.77R WCI  25
ROCHESTER      LGT RAIN  40  37  89 NW9G18    29.79R WCI  34
PENN YAN       LGT RAIN  39  35  86 W13G20    29.74R WCI  31
$$

             KEY
       WCI = WIND CHILL INDEX
       VSB = VISIBILITY
       HX  = HEAT INDEX
$$



USA.gov is the U.S. government's official web portal to all federal, state and local government web resources and services.